COSMOS 1833

Last updated on Tue Oct 21 2025 00:02:15 GMT+0000 (Coordinated Universal Time)

1 17589U 87027A 25293.62443471 -.00000323 00000+0 -14722-3 0 9994 2 17589 70.9167 260.4297 0019980 48.2669 312.0156 14.13031007990527
UTC large
Height (km)
Speed (km/s)
/
Latitude / Longitude
Inclination (degrees)
Orbital Period (minutes)
Azimuth
Elevation
Range (km)
Doppler Factor

Next 0 passes for location: London (51.5072 / 0.1276)

Sorry there are no passes over London.